Retour au catalogue

USA 326

ActifNavigationSSO
NORAD 51445·PAYLOAD·🇺🇸 United States

Lancé Feb 2, 2022 depuis Vandenberg Space Force Base

Loading…

Prochains Passages (prochaines 24 heures)

TLE

PériméSource: Mike McCants

Époque: Aug 31, 2026, 22:54 UTC

1 51445U 22009A   26243.95437690 0.00004436  00000-0  19620-3 0    03
2 51445  97.3970 338.7397 0003584 320.4864  39.5504 15.21727995    07

Suivez USA 326 en temps réel avec AllMySat

Download on the App Store